Private Wetterstation Sandau
Wetterdaten: Sonntag, 17.02.2013
Datum Zeit Temp. A. Feuchte A. Luftdruck Regen Wind Richtung Richtung Taupunkt Windchill
17.02.2013 00:01 0,9 C 90 % 1026,9 hPa 0,0 l/m 0,0 km/h (0 Bft) O 90 -0,6 C 0,9 C
17.02.2013 00:06 0,8 C 90 % 1026,7 hPa 0,0 l/m 1,1 km/h (1 Bft) O 90 -0,6 C 0,8 C
17.02.2013 00:11 0,8 C 90 % 1026,8 hPa 0,0 l/m 0,0 km/h (0 Bft) O-SO 112 -0,6 C 0,8 C
17.02.2013 00:16 0,8 C 90 % 1026,7 hPa 0,0 l/m 3,2 km/h (1 Bft) O-SO 112 -0,6 C 0,8 C
17.02.2013 00:21 0,8 C 90 % 1026,7 hPa 0,0 l/m 0,0 km/h (0 Bft) O 90 -0,6 C 0,8 C
17.02.2013 00:26 0,8 C 91 % 1026,7 hPa 0,0 l/m 1,1 km/h (1 Bft) O 90 -0,5 C 0,8 C
17.02.2013 00:31 0,8 C 91 % 1026,7 hPa 0,0 l/m 2,9 km/h (1 Bft) O 90 -0,5 C 0,8 C
17.02.2013 00:36 0,8 C 91 % 1026,9 hPa 0,0 l/m 3,2 km/h (1 Bft) O 90 -0,5 C 0,8 C
17.02.2013 00:41 0,8 C 91 % 1026,8 hPa 0,0 l/m 2,9 km/h (1 Bft) O 90 -0,5 C 0,8 C
17.02.2013 00:46 0,8 C 91 % 1026,8 hPa 0,0 l/m 2,5 km/h (1 Bft) O-NO 67 -0,5 C 0,8 C
17.02.2013 00:51 0,8 C 91 % 1026,6 hPa 0,0 l/m 2,2 km/h (1 Bft) O-NO 67 -0,5 C 0,8 C
17.02.2013 00:56 0,8 C 91 % 1026,8 hPa 0,0 l/m 4,0 km/h (1 Bft) O-NO 67 -0,5 C 0,8 C
17.02.2013 01:01 0,7 C 91 % 1026,9 hPa 0,0 l/m 1,4 km/h (1 Bft) O-NO 67 -0,6 C 0,7 C
17.02.2013 01:06 0,7 C 91 % 1026,6 hPa 0,0 l/m 0,0 km/h (0 Bft) O-SO 112 -0,6 C 0,7 C
17.02.2013 01:11 0,7 C 91 % 1026,8 hPa 0,0 l/m 2,2 km/h (1 Bft) O-SO 112 -0,6 C 0,7 C
17.02.2013 01:16 0,7 C 91 % 1026,6 hPa 0,0 l/m 1,4 km/h (1 Bft) O-SO 112 -0,6 C 0,7 C
17.02.2013 01:21 0,7 C 91 % 1026,7 hPa 0,0 l/m 1,8 km/h (1 Bft) O-SO 112 -0,6 C 0,7 C
17.02.2013 01:26 0,6 C 91 % 1026,8 hPa 0,0 l/m 3,2 km/h (1 Bft) O-SO 112 -0,7 C 0,6 C
17.02.2013 01:31 0,6 C 91 % 1026,8 hPa 0,0 l/m 1,4 km/h (1 Bft) O-SO 112 -0,7 C 0,6 C
17.02.2013 01:36 0,6 C 91 % 1026,8 hPa 0,0 l/m 0,0 km/h (0 Bft) O-SO 112 -0,7 C 0,6 C
17.02.2013 01:41 0,6 C 91 % 1026,9 hPa 0,0 l/m 3,6 km/h (1 Bft) O-SO 112 -0,7 C 0,6 C
17.02.2013 01:46 0,6 C 91 % 1026,7 hPa 0,0 l/m 2,2 km/h (1 Bft) O-SO 112 -0,7 C 0,6 C
17.02.2013 01:51 0,6 C 91 % 1026,7 hPa 0,0 l/m 0,0 km/h (0 Bft) O-SO 112 -0,7 C 0,6 C
17.02.2013 01:56 0,6 C 91 % 1026,8 hPa 0,0 l/m 5,4 km/h (1 Bft) O-SO 112 -0,7 C -1,1 C
17.02.2013 02:01 0,6 C 91 % 1026,7 hPa 0,0 l/m 4,3 km/h (1 Bft) O-SO 112 -0,7 C 0,6 C
17.02.2013 02:06 0,6 C 91 % 1026,8 hPa 0,0 l/m 1,8 km/h (1 Bft) NO 45 -0,7 C 0,6 C
17.02.2013 02:11 0,6 C 91 % 1026,9 hPa 0,0 l/m 2,5 km/h (1 Bft) NO 45 -0,7 C 0,6 C
17.02.2013 02:16 0,6 C 91 % 1026,8 hPa 0,0 l/m 1,4 km/h (1 Bft) O-NO 67 -0,7 C 0,6 C
17.02.2013 02:21 0,6 C 91 % 1026,8 hPa 0,0 l/m 1,1 km/h (1 Bft) O-NO 67 -0,7 C 0,6 C
17.02.2013 02:26 0,6 C 91 % 1026,8 hPa 0,0 l/m 1,4 km/h (1 Bft) O-NO 67 -0,7 C 0,6 C
17.02.2013 02:31 0,6 C 91 % 1026,8 hPa 0,0 l/m 0,0 km/h (0 Bft) O 90 -0,7 C 0,6 C
17.02.2013 02:36 0,6 C 91 % 1026,7 hPa 0,0 l/m 2,2 km/h (1 Bft) O-SO 112 -0,7 C 0,6 C
17.02.2013 02:41 0,6 C 91 % 1026,8 hPa 0,0 l/m 0,0 km/h (0 Bft) O-SO 112 -0,7 C 0,6 C
17.02.2013 02:46 0,5 C 91 % 1026,8 hPa 0,0 l/m 1,1 km/h (1 Bft) O-SO 112 -0,8 C 0,5 C
17.02.2013 02:51 0,5 C 91 % 1026,8 hPa 0,0 l/m 0,0 km/h (0 Bft) O-SO 112 -0,8 C 0,5 C
17.02.2013 02:56 0,5 C 91 % 1026,8 hPa 0,0 l/m 0,0 km/h (0 Bft) O-SO 112 -0,8 C 0,5 C
17.02.2013 03:01 0,5 C 91 % 1026,6 hPa 0,0 l/m 2,2 km/h (1 Bft) O 90 -0,8 C 0,5 C
17.02.2013 03:06 0,5 C 91 % 1026,6 hPa 0,0 l/m 2,5 km/h (1 Bft) O 90 -0,8 C 0,5 C
17.02.2013 03:11 0,5 C 91 % 1026,8 hPa 0,0 l/m 1,1 km/h (1 Bft) O 90 -0,8 C 0,5 C
17.02.2013 03:16 0,5 C 91 % 1026,7 hPa 0,0 l/m 1,8 km/h (1 Bft) O 90 -0,8 C 0,5 C
17.02.2013 03:21 0,5 C 91 % 1026,6 hPa 0,0 l/m 1,4 km/h (1 Bft) O-SO 112 -0,8 C 0,5 C
17.02.2013 03:26 0,5 C 91 % 1026,7 hPa 0,0 l/m 1,8 km/h (1 Bft) O-SO 112 -0,8 C 0,5 C
17.02.2013 03:31 0,5 C 91 % 1026,8 hPa 0,0 l/m 0,0 km/h (0 Bft) O-SO 112 -0,8 C 0,5 C
17.02.2013 03:36 0,5 C 91 % 1026,8 hPa 0,0 l/m 0,0 km/h (0 Bft) O-SO 112 -0,8 C 0,5 C
17.02.2013 03:41 0,5 C 91 % 1026,7 hPa 0,0 l/m 1,4 km/h (1 Bft) O-SO 112 -0,8 C 0,5 C
17.02.2013 03:46 0,5 C 91 % 1026,5 hPa 0,0 l/m 4,7 km/h (1 Bft) O-SO 112 -0,8 C -0,9 C
17.02.2013 03:51 0,5 C 91 % 1026,6 hPa 0,0 l/m 4,7 km/h (1 Bft) O-SO 112 -0,8 C -0,9 C
17.02.2013 03:56 0,5 C 91 % 1026,6 hPa 0,0 l/m 1,4 km/h (1 Bft) O-SO 112 -0,8 C 0,5 C
17.02.2013 04:01 0,5 C 91 % 1026,5 hPa 0,0 l/m 1,1 km/h (1 Bft) O-SO 112 -0,8 C 0,5 C
17.02.2013 04:06 0,5 C 91 % 1026,6 hPa 0,0 l/m 0,0 km/h (0 Bft) O-SO 112 -0,8 C 0,5 C
17.02.2013 04:11 0,5 C 91 % 1026,5 hPa 0,0 l/m 0,0 km/h (0 Bft) O-SO 112 -0,8 C 0,5 C
17.02.2013 04:16 0,5 C 91 % 1026,5 hPa 0,0 l/m 2,2 km/h (1 Bft) O-SO 112 -0,8 C 0,5 C
17.02.2013 04:21 0,5 C 91 % 1026,6 hPa 0,0 l/m 1,1 km/h (1 Bft) O-SO 112 -0,8 C 0,5 C
17.02.2013 04:26 0,5 C 91 % 1026,7 hPa 0,0 l/m 2,5 km/h (1 Bft) O-SO 112 -0,8 C 0,5 C
17.02.2013 04:31 0,5 C 91 % 1026,7 hPa 0,0 l/m 0,0 km/h (0 Bft) O-SO 112 -0,8 C 0,5 C
17.02.2013 04:36 0,5 C 91 % 1026,7 hPa 0,0 l/m 1,4 km/h (1 Bft) O-SO 112 -0,8 C 0,5 C
17.02.2013 04:41 0,5 C 91 % 1026,7 hPa 0,0 l/m 0,0 km/h (0 Bft) O-SO 112 -0,8 C 0,5 C
17.02.2013 04:46 0,6 C 91 % 1026,6 hPa 0,0 l/m 0,0 km/h (0 Bft) O-SO 112 -0,7 C 0,6 C
17.02.2013 04:51 0,6 C 91 % 1026,7 hPa 0,0 l/m 0,0 km/h (0 Bft) O-SO 112 -0,7 C 0,6 C
17.02.2013 04:56 0,6 C 91 % 1026,7 hPa 0,0 l/m 0,0 km/h (0 Bft) O-SO 112 -0,7 C 0,6 C
17.02.2013 05:01 0,6 C 91 % 1026,7 hPa 0,0 l/m 0,0 km/h (0 Bft) O-SO 112 -0,7 C 0,6 C
17.02.2013 05:06 0,6 C 91 % 1026,7 hPa 0,0 l/m 1,4 km/h (1 Bft) O-NO 67 -0,7 C 0,6 C
17.02.2013 05:11 0,6 C 91 % 1026,8 hPa 0,0 l/m 0,0 km/h (0 Bft) O-NO 67 -0,7 C 0,6 C
17.02.2013 05:16 0,6 C 91 % 1026,7 hPa 0,0 l/m 0,0 km/h (0 Bft) O-NO 67 -0,7 C 0,6 C
17.02.2013 05:21 0,7 C 91 % 1026,6 hPa 0,0 l/m 0,0 km/h (0 Bft) O-NO 67 -0,6 C 0,7 C
17.02.2013 05:26 0,7 C 91 % 1026,7 hPa 0,0 l/m 1,4 km/h (1 Bft) O-NO 67 -0,6 C 0,7 C
17.02.2013 05:31 0,7 C 92 % 1026,6 hPa 0,0 l/m 1,4 km/h (1 Bft) O-NO 67 -0,4 C 0,7 C
17.02.2013 05:36 0,7 C 92 % 1026,7 hPa 0,0 l/m 0,0 km/h (0 Bft) O-NO 67 -0,4 C 0,7 C
17.02.2013 05:41 0,7 C 92 % 1026,5 hPa 0,0 l/m 0,0 km/h (0 Bft) O-NO 67 -0,4 C 0,7 C
17.02.2013 05:46 0,7 C 92 % 1026,5 hPa 0,0 l/m 1,1 km/h (1 Bft) O-NO 67 -0,4 C 0,7 C
17.02.2013 05:51 0,7 C 92 % 1026,4 hPa 0,0 l/m 2,2 km/h (1 Bft) O-NO 67 -0,4 C 0,7 C
17.02.2013 05:56 0,8 C 92 % 1026,6 hPa 0,0 l/m 2,9 km/h (1 Bft) NO 45 -0,3 C 0,8 C
17.02.2013 06:01 0,8 C 92 % 1026,6 hPa 0,0 l/m 2,2 km/h (1 Bft) NO 45 -0,3 C 0,8 C
17.02.2013 06:06 0,8 C 92 % 1026,6 hPa 0,0 l/m 0,0 km/h (0 Bft) NO 45 -0,3 C 0,8 C
17.02.2013 06:11 0,8 C 92 % 1026,8 hPa 0,0 l/m 0,0 km/h (0 Bft) NO 45 -0,3 C 0,8 C
17.02.2013 06:16 0,7 C 92 % 1026,8 hPa 0,0 l/m 1,4 km/h (1 Bft) NO 45 -0,4 C 0,7 C
17.02.2013 06:21 0,7 C 92 % 1026,7 hPa 0,0 l/m 2,5 km/h (1 Bft) O-NO 67 -0,4 C 0,7 C
17.02.2013 06:26 0,7 C 92 % 1026,7 hPa 0,0 l/m 0,0 km/h (0 Bft) NO 45 -0,4 C 0,7 C
17.02.2013 06:31 0,7 C 92 % 1026,8 hPa 0,0 l/m 1,8 km/h (1 Bft) O-NO 67 -0,4 C 0,7 C
17.02.2013 06:36 0,7 C 92 % 1026,8 hPa 0,0 l/m 1,8 km/h (1 Bft) O-NO 67 -0,4 C 0,7 C
17.02.2013 06:41 0,7 C 92 % 1026,8 hPa 0,0 l/m 0,0 km/h (0 Bft) NO 45 -0,4 C 0,7 C
17.02.2013 06:46 0,7 C 92 % 1026,8 hPa 0,0 l/m 2,9 km/h (1 Bft) NO 45 -0,4 C 0,7 C
17.02.2013 06:51 0,7 C 92 % 1026,9 hPa 0,0 l/m 2,2 km/h (1 Bft) NO 45 -0,4 C 0,7 C
17.02.2013 06:56 0,7 C 92 % 1026,9 hPa 0,0 l/m 1,1 km/h (1 Bft) NO 45 -0,4 C 0,7 C
17.02.2013 07:01 0,7 C 92 % 1026,9 hPa 0,0 l/m 2,2 km/h (1 Bft) NO 45 -0,4 C 0,7 C
17.02.2013 07:06 0,7 C 92 % 1026,8 hPa 0,0 l/m 2,9 km/h (1 Bft) NO 45 -0,4 C 0,7 C
17.02.2013 07:11 0,7 C 92 % 1026,8 hPa 0,0 l/m 2,2 km/h (1 Bft) NO 45 -0,4 C 0,7 C
17.02.2013 07:16 0,7 C 92 % 1026,8 hPa 0,0 l/m 4,7 km/h (1 Bft) NO 45 -0,4 C -0,7 C
17.02.2013 07:21 0,7 C 92 % 1026,8 hPa 0,0 l/m 3,2 km/h (1 Bft) NO 45 -0,4 C 0,7 C
17.02.2013 07:26 0,7 C 92 % 1027,1 hPa 0,0 l/m 1,1 km/h (1 Bft) NO 45 -0,4 C 0,7 C
17.02.2013 07:31 0,7 C 92 % 1027,1 hPa 0,0 l/m 2,5 km/h (1 Bft) NO 45 -0,4 C 0,7 C
17.02.2013 07:36 0,7 C 93 % 1027,1 hPa 0,0 l/m 2,2 km/h (1 Bft) NO 45 -0,3 C 0,7 C
17.02.2013 07:41 0,7 C 93 % 1027,0 hPa 0,0 l/m 0,0 km/h (0 Bft) NO 45 -0,3 C 0,7 C
17.02.2013 07:46 0,7 C 93 % 1027,0 hPa 0,0 l/m 0,0 km/h (0 Bft) NO 45 -0,3 C 0,7 C
17.02.2013 07:51 0,7 C 93 % 1027,2 hPa 0,0 l/m 0,0 km/h (0 Bft) NO 45 -0,3 C 0,7 C
17.02.2013 07:56 0,7 C 93 % 1027,1 hPa 0,0 l/m 2,9 km/h (1 Bft) NO 45 -0,3 C 0,7 C
17.02.2013 08:01 0,7 C 93 % 1027,2 hPa 0,0 l/m 0,0 km/h (0 Bft) NO 45 -0,3 C 0,7 C
17.02.2013 08:06 0,7 C 93 % 1027,2 hPa 0,0 l/m 0,0 km/h (0 Bft) NO 45 -0,3 C 0,7 C
17.02.2013 08:11 0,8 C 93 % 1027,1 hPa 0,0 l/m 0,0 km/h (0 Bft) NO 45 -0,2 C 0,8 C
17.02.2013 08:16 0,8 C 93 % 1027,2 hPa 0,0 l/m 0,0 km/h (0 Bft) NO 45 -0,2 C 0,8 C
17.02.2013 08:21 0,8 C 93 % 1027,3 hPa 0,0 l/m 0,0 km/h (0 Bft) NO 45 -0,2 C 0,8 C
17.02.2013 08:26 0,8 C 93 % 1027,4 hPa 0,0 l/m 1,8 km/h (1 Bft) NO 45 -0,2 C 0,8 C
17.02.2013 08:31 0,8 C 93 % 1027,3 hPa 0,0 l/m 1,1 km/h (1 Bft) NO 45 -0,2 C 0,8 C
17.02.2013 08:36 0,8 C 93 % 1027,2 hPa 0,0 l/m 0,0 km/h (0 Bft) NO 45 -0,2 C 0,8 C
17.02.2013 08:41 0,8 C 93 % 1027,2 hPa 0,0 l/m 2,9 km/h (1 Bft) NO 45 -0,2 C 0,8 C
17.02.2013 08:46 0,8 C 93 % 1027,2 hPa 0,0 l/m 3,2 km/h (1 Bft) NO 45 -0,2 C 0,8 C
17.02.2013 08:51 0,8 C 93 % 1027,2 hPa 0,0 l/m 0,0 km/h (0 Bft) NO 45 -0,2 C 0,8 C
17.02.2013 08:56 0,8 C 93 % 1027,1 hPa 0,0 l/m 0,0 km/h (0 Bft) NO 45 -0,2 C 0,8 C
17.02.2013 09:01 0,8 C 93 % 1027,2 hPa 0,0 l/m 2,9 km/h (1 Bft) NO 45 -0,2 C 0,8 C
17.02.2013 09:06 0,8 C 93 % 1027,1 hPa 0,0 l/m 1,4 km/h (1 Bft) NO 45 -0,2 C 0,8 C
17.02.2013 09:11 0,8 C 93 % 1027,2 hPa 0,0 l/m 0,0 km/h (0 Bft) NO 45 -0,2 C 0,8 C
17.02.2013 09:16 0,8 C 93 % 1027,2 hPa 0,0 l/m 1,1 km/h (1 Bft) NO 45 -0,2 C 0,8 C
17.02.2013 09:21 0,9 C 93 % 1027,2 hPa 0,0 l/m 0,0 km/h (0 Bft) NO 45 -0,1 C 0,9 C
17.02.2013 09:26 0,9 C 93 % 1027,2 hPa 0,0 l/m 2,5 km/h (1 Bft) NO 45 -0,1 C 0,9 C
17.02.2013 09:31 0,9 C 93 % 1027,2 hPa 0,0 l/m 1,8 km/h (1 Bft) O-SO 112 -0,1 C 0,9 C
17.02.2013 09:36 0,9 C 93 % 1027,2 hPa 0,0 l/m 3,2 km/h (1 Bft) O-SO 112 -0,1 C 0,9 C
17.02.2013 09:41 0,9 C 93 % 1027,2 hPa 0,0 l/m 5,0 km/h (1 Bft) O-SO 112 -0,1 C -0,6 C
17.02.2013 09:46 0,9 C 93 % 1027,1 hPa 0,0 l/m 4,0 km/h (1 Bft) O-SO 112 -0,1 C 0,9 C
17.02.2013 09:51 0,9 C 93 % 1027,3 hPa 0,0 l/m 2,5 km/h (1 Bft) SO 135 -0,1 C 0,9 C
17.02.2013 09:56 0,9 C 93 % 1027,1 hPa 0,0 l/m 2,5 km/h (1 Bft) SO 135 -0,1 C 0,9 C
17.02.2013 10:01 0,9 C 93 % 1027,2 hPa 0,0 l/m 0,0 km/h (0 Bft) O-SO 112 -0,1 C 0,9 C
17.02.2013 10:06 0,9 C 93 % 1027,2 hPa 0,0 l/m 1,4 km/h (1 Bft) O-SO 112 -0,1 C 0,9 C
17.02.2013 10:11 0,9 C 93 % 1027,1 hPa 0,0 l/m 1,4 km/h (1 Bft) SO 135 -0,1 C 0,9 C
17.02.2013 10:16 0,9 C 93 % 1027,2 hPa 0,0 l/m 2,5 km/h (1 Bft) O 90 -0,1 C 0,9 C
17.02.2013 10:21 0,9 C 93 % 1027,2 hPa 0,0 l/m 4,7 km/h (1 Bft) O-NO 67 -0,1 C -0,4 C
17.02.2013 10:26 0,9 C 93 % 1027,2 hPa 0,0 l/m 0,0 km/h (0 Bft) SO 135 -0,1 C 0,9 C
17.02.2013 10:31 0,9 C 93 % 1027,2 hPa 0,0 l/m 4,3 km/h (1 Bft) O-SO 112 -0,1 C 0,9 C
17.02.2013 10:36 0,9 C 93 % 1027,3 hPa 0,0 l/m 6,5 km/h (2 Bft) O-SO 112 -0,1 C -1,2 C
17.02.2013 10:41 0,9 C 93 % 1027,3 hPa 0,0 l/m 2,2 km/h (1 Bft) O-SO 112 -0,1 C 0,9 C
17.02.2013 10:46 0,9 C 93 % 1027,2 hPa 0,0 l/m 0,0 km/h (0 Bft) O-SO 112 -0,1 C 0,9 C
17.02.2013 10:51 1,0 C 93 % 1027,2 hPa 0,0 l/m 1,4 km/h (1 Bft) O-SO 112 -0,0 C 1,0 C
17.02.2013 10:56 1,0 C 93 % 1027,2 hPa 0,0 l/m 2,2 km/h (1 Bft) SO 135 -0,0 C 1,0 C
17.02.2013 11:01 1,1 C 93 % 1027,2 hPa 0,0 l/m 4,0 km/h (1 Bft) O-SO 112 0,1 C 1,1 C
17.02.2013 11:06 1,3 C 93 % 1027,2 hPa 0,0 l/m 3,2 km/h (1 Bft) O-SO 112 0,3 C 1,3 C
17.02.2013 11:11 1,3 C 93 % 1027,2 hPa 0,0 l/m 2,5 km/h (1 Bft) SO 135 0,3 C 1,3 C
17.02.2013 11:16 1,3 C 93 % 1027,2 hPa 0,0 l/m 1,1 km/h (1 Bft) SO 135 0,3 C 1,3 C
17.02.2013 11:21 1,3 C 93 % 1027,3 hPa 0,0 l/m 2,5 km/h (1 Bft) S-SO 157 0,3 C 1,3 C
17.02.2013 11:26 1,3 C 93 % 1027,3 hPa 0,0 l/m 0,0 km/h (0 Bft) O-SO 112 0,3 C 1,3 C
17.02.2013 11:31 1,3 C 93 % 1027,3 hPa 0,0 l/m 1,4 km/h (1 Bft) S-SO 157 0,3 C 1,3 C
17.02.2013 11:36 1,3 C 93 % 1027,4 hPa 0,0 l/m 2,2 km/h (1 Bft) O-SO 112 0,3 C 1,3 C
17.02.2013 11:41 1,3 C 93 % 1027,3 hPa 0,0 l/m 2,2 km/h (1 Bft) SO 135 0,3 C 1,3 C
17.02.2013 11:46 1,3 C 93 % 1027,3 hPa 0,0 l/m 3,2 km/h (1 Bft) O-SO 112 0,3 C 1,3 C
17.02.2013 11:51 1,3 C 93 % 1027,3 hPa 0,0 l/m 1,8 km/h (1 Bft) S-SO 157 0,3 C 1,3 C
17.02.2013 11:56 1,3 C 93 % 1027,2 hPa 0,0 l/m 3,6 km/h (1 Bft) S-SO 157 0,3 C 1,3 C
17.02.2013 12:01 1,3 C 93 % 1027,3 hPa 0,0 l/m 0,0 km/h (0 Bft) SO 135 0,3 C 1,3 C
17.02.2013 12:06 1,3 C 93 % 1027,3 hPa 0,0 l/m 1,8 km/h (1 Bft) SO 135 0,3 C 1,3 C
17.02.2013 12:11 1,3 C 93 % 1027,3 hPa 0,0 l/m 0,0 km/h (0 Bft) O-SO 112 0,3 C 1,3 C
17.02.2013 12:16 1,3 C 93 % 1027,0 hPa 0,0 l/m 1,1 km/h (1 Bft) O-NO 67 0,3 C 1,3 C
17.02.2013 12:21 1,4 C 93 % 1027,1 hPa 0,0 l/m 2,5 km/h (1 Bft) O-NO 67 0,4 C 1,4 C
17.02.2013 12:26 1,3 C 93 % 1027,0 hPa 0,0 l/m 2,2 km/h (1 Bft) O 90 0,3 C 1,3 C
17.02.2013 12:31 1,3 C 93 % 1027,1 hPa 0,0 l/m 6,8 km/h (2 Bft) SO 135 0,3 C -0,8 C
17.02.2013 12:36 1,3 C 93 % 1027,0 hPa 0,0 l/m 1,1 km/h (1 Bft) O-SO 112 0,3 C 1,3 C
17.02.2013 12:41 1,3 C 93 % 1027,1 hPa 0,0 l/m 0,0 km/h (0 Bft) SO 135 0,3 C 1,3 C
17.02.2013 12:46 1,4 C 93 % 1027,1 hPa 0,0 l/m 2,2 km/h (1 Bft) SO 135 0,4 C 1,4 C
17.02.2013 12:51 1,3 C 93 % 1027,0 hPa 0,0 l/m 2,9 km/h (1 Bft) SO 135 0,3 C 1,3 C
17.02.2013 12:56 1,4 C 93 % 1027,0 hPa 0,0 l/m 0,0 km/h (0 Bft) O-SO 112 0,4 C 1,4 C
17.02.2013 13:01 1,6 C 93 % 1026,9 hPa 0,0 l/m 2,2 km/h (1 Bft) O-SO 112 0,6 C 1,6 C
17.02.2013 13:06 1,5 C 93 % 1027,0 hPa 0,0 l/m 4,0 km/h (1 Bft) O-SO 112 0,5 C 1,5 C
17.02.2013 13:11 1,6 C 93 % 1026,8 hPa 0,0 l/m 0,0 km/h (0 Bft) S-SO 157 0,6 C 1,6 C
17.02.2013 13:16 1,5 C 93 % 1026,8 hPa 0,0 l/m 4,0 km/h (1 Bft) O-SO 112 0,5 C 1,5 C
17.02.2013 13:21 1,6 C 93 % 1026,8 hPa 0,0 l/m 2,5 km/h (1 Bft) O 90 0,6 C 1,6 C
17.02.2013 13:26 1,6 C 92 % 1026,8 hPa 0,0 l/m 2,2 km/h (1 Bft) SO 135 0,4 C 1,6 C
17.02.2013 13:31 1,6 C 92 % 1026,7 hPa 0,0 l/m 3,2 km/h (1 Bft) SO 135 0,4 C 1,6 C
17.02.2013 13:36 1,6 C 92 % 1026,9 hPa 0,0 l/m 0,0 km/h (0 Bft) SO 135 0,4 C 1,6 C
17.02.2013 13:41 1,6 C 92 % 1026,8 hPa 0,0 l/m 0,0 km/h (0 Bft) O-SO 112 0,4 C 1,6 C
17.02.2013 13:46 1,6 C 92 % 1026,6 hPa 0,0 l/m 0,0 km/h (0 Bft) SO 135 0,4 C 1,6 C
17.02.2013 13:51 1,6 C 92 % 1026,5 hPa 0,0 l/m 0,0 km/h (0 Bft) O-SO 112 0,4 C 1,6 C
17.02.2013 13:56 1,6 C 92 % 1026,6 hPa 0,0 l/m 0,0 km/h (0 Bft) SO 135 0,4 C 1,6 C
17.02.2013 14:01 1,6 C 92 % 1026,6 hPa 0,0 l/m 2,9 km/h (1 Bft) O-SO 112 0,4 C 1,6 C
17.02.2013 14:06 1,6 C 92 % 1026,4 hPa 0,0 l/m 2,2 km/h (1 Bft) O-SO 112 0,4 C 1,6 C
17.02.2013 14:11 1,5 C 92 % 1026,5 hPa 0,0 l/m 0,0 km/h (0 Bft) O-SO 112 0,3 C 1,5 C
17.02.2013 14:16 1,5 C 92 % 1026,5 hPa 0,0 l/m 0,0 km/h (0 Bft) SO 135 0,3 C 1,5 C
17.02.2013 14:21 1,5 C 92 % 1026,6 hPa 0,0 l/m 0,0 km/h (0 Bft) O-SO 112 0,3 C 1,5 C
17.02.2013 14:26 1,5 C 92 % 1026,5 hPa 0,0 l/m 0,0 km/h (0 Bft) O-SO 112 0,3 C 1,5 C
17.02.2013 14:31 1,5 C 92 % 1026,5 hPa 0,0 l/m 4,0 km/h (1 Bft) O-SO 112 0,3 C 1,5 C
17.02.2013 14:36 1,5 C 92 % 1026,5 hPa 0,0 l/m 0,0 km/h (0 Bft) O-SO 112 0,3 C 1,5 C
17.02.2013 14:41 1,5 C 92 % 1026,4 hPa 0,0 l/m 0,0 km/h (0 Bft) O-SO 112 0,3 C 1,5 C
17.02.2013 14:46 1,5 C 92 % 1026,4 hPa 0,0 l/m 0,0 km/h (0 Bft) SO 135 0,3 C 1,5 C
17.02.2013 14:51 1,5 C 92 % 1026,3 hPa 0,0 l/m 1,8 km/h (1 Bft) SO 135 0,3 C 1,5 C
17.02.2013 14:56 1,5 C 92 % 1026,4 hPa 0,0 l/m 0,0 km/h (0 Bft) SO 135 0,3 C 1,5 C
17.02.2013 15:01 1,5 C 92 % 1026,4 hPa 0,0 l/m 4,3 km/h (1 Bft) SO 135 0,3 C 1,5 C
17.02.2013 15:06 1,5 C 92 % 1026,3 hPa 0,0 l/m 2,5 km/h (1 Bft) O-SO 112 0,3 C 1,5 C
17.02.2013 15:11 1,5 C 93 % 1026,3 hPa 0,0 l/m 1,4 km/h (1 Bft) O-SO 112 0,5 C 1,5 C
17.02.2013 15:16 1,4 C 92 % 1026,3 hPa 0,0 l/m 1,4 km/h (1 Bft) O-SO 112 0,2 C 1,4 C
17.02.2013 15:21 1,4 C 93 % 1026,4 hPa 0,0 l/m 1,8 km/h (1 Bft) O-SO 112 0,4 C 1,4 C
17.02.2013 15:26 1,4 C 93 % 1026,2 hPa 0,0 l/m 0,0 km/h (0 Bft) O-SO 112 0,4 C 1,4 C
17.02.2013 15:31 1,4 C 93 % 1026,2 hPa 0,0 l/m 0,0 km/h (0 Bft) SO 135 0,4 C 1,4 C
17.02.2013 15:36 1,4 C 93 % 1026,2 hPa 0,0 l/m 1,4 km/h (1 Bft) SO 135 0,4 C 1,4 C
17.02.2013 15:41 1,4 C 93 % 1026,2 hPa 0,0 l/m 2,2 km/h (1 Bft) O-SO 112 0,4 C 1,4 C
17.02.2013 15:46 1,4 C 93 % 1026,2 hPa 0,0 l/m 0,0 km/h (0 Bft) SO 135 0,4 C 1,4 C
17.02.2013 15:51 1,4 C 93 % 1026,1 hPa 0,0 l/m 4,3 km/h (1 Bft) O-SO 112 0,4 C 1,4 C
17.02.2013 15:56 1,4 C 93 % 1026,1 hPa 0,0 l/m 0,0 km/h (0 Bft) SO 135 0,4 C 1,4 C
17.02.2013 16:01 1,4 C 93 % 1026,2 hPa 0,0 l/m 0,0 km/h (0 Bft) SO 135 0,4 C 1,4 C
17.02.2013 16:06 1,4 C 93 % 1026,3 hPa 0,0 l/m 0,0 km/h (0 Bft) SO 135 0,4 C 1,4 C
17.02.2013 16:11 1,4 C 93 % 1026,1 hPa 0,0 l/m 2,5 km/h (1 Bft) SO 135 0,4 C 1,4 C
17.02.2013 16:16 1,4 C 93 % 1026,0 hPa 0,0 l/m 0,0 km/h (0 Bft) O-SO 112 0,4 C 1,4 C
17.02.2013 16:21 1,4 C 93 % 1026,1 hPa 0,0 l/m 2,2 km/h (1 Bft) SO 135 0,4 C 1,4 C
17.02.2013 16:26 1,4 C 93 % 1026,0 hPa 0,0 l/m 2,2 km/h (1 Bft) O-SO 112 0,4 C 1,4 C
17.02.2013 16:31 1,4 C 93 % 1026,0 hPa 0,0 l/m 2,9 km/h (1 Bft) O-SO 112 0,4 C 1,4 C
17.02.2013 16:36 1,4 C 93 % 1026,0 hPa 0,0 l/m 0,0 km/h (0 Bft) O-SO 112 0,4 C 1,4 C
17.02.2013 16:41 1,3 C 93 % 1026,0 hPa 0,0 l/m 0,0 km/h (0 Bft) O-SO 112 0,3 C 1,3 C
17.02.2013 16:46 1,3 C 93 % 1026,1 hPa 0,0 l/m 3,6 km/h (1 Bft) O 90 0,3 C 1,3 C
17.02.2013 16:51 1,3 C 93 % 1026,1 hPa 0,0 l/m 1,4 km/h (1 Bft) O 90 0,3 C 1,3 C
17.02.2013 16:56 1,3 C 93 % 1026,0 hPa 0,0 l/m 1,1 km/h (1 Bft) O 90 0,3 C 1,3 C
17.02.2013 17:01 1,3 C 93 % 1026,0 hPa 0,0 l/m 1,4 km/h (1 Bft) O-SO 112 0,3 C 1,3 C
17.02.2013 17:06 1,3 C 93 % 1025,9 hPa 0,0 l/m 0,0 km/h (0 Bft) O-SO 112 0,3 C 1,3 C
17.02.2013 17:11 1,3 C 93 % 1026,0 hPa 0,0 l/m 0,0 km/h (0 Bft) O-SO 112 0,3 C 1,3 C
17.02.2013 17:16 1,3 C 93 % 1025,9 hPa 0,0 l/m 1,8 km/h (1 Bft) O-SO 112 0,3 C 1,3 C
17.02.2013 17:21 1,3 C 93 % 1026,1 hPa 0,0 l/m 0,0 km/h (0 Bft) O-SO 112 0,3 C 1,3 C
17.02.2013 17:26 1,3 C 93 % 1026,1 hPa 0,0 l/m 0,0 km/h (0 Bft) O-SO 112 0,3 C 1,3 C
17.02.2013 17:31 1,3 C 93 % 1026,0 hPa 0,0 l/m 0,0 km/h (0 Bft) O-SO 112 0,3 C 1,3 C
17.02.2013 17:36 1,3 C 93 % 1026,0 hPa 0,0 l/m 1,8 km/h (1 Bft) O-SO 112 0,3 C 1,3 C
17.02.2013 17:41 1,3 C 93 % 1026,0 hPa 0,0 l/m 0,0 km/h (0 Bft) O-SO 112 0,3 C 1,3 C
17.02.2013 17:46 1,3 C 93 % 1026,1 hPa 0,0 l/m 1,1 km/h (1 Bft) O-SO 112 0,3 C 1,3 C
17.02.2013 17:51 1,2 C 93 % 1026,1 hPa 0,0 l/m 0,0 km/h (0 Bft) O-SO 112 0,2 C 1,2 C
17.02.2013 17:56 1,2 C 93 % 1026,1 hPa 0,0 l/m 0,0 km/h (0 Bft) O-SO 112 0,2 C 1,2 C
17.02.2013 18:01 1,2 C 93 % 1026,1 hPa 0,0 l/m 0,0 km/h (0 Bft) O-SO 112 0,2 C 1,2 C
17.02.2013 18:06 1,2 C 93 % 1026,2 hPa 0,0 l/m 1,4 km/h (1 Bft) O-SO 112 0,2 C 1,2 C
17.02.2013 18:11 1,2 C 93 % 1026,1 hPa 0,0 l/m 0,0 km/h (0 Bft) O-SO 112 0,2 C 1,2 C
17.02.2013 18:16 1,2 C 93 % 1026,0 hPa 0,0 l/m 0,0 km/h (0 Bft) O-SO 112 0,2 C 1,2 C
17.02.2013 18:21 1,2 C 93 % 1026,2 hPa 0,0 l/m 0,0 km/h (0 Bft) O-SO 112 0,2 C 1,2 C
17.02.2013 18:26 1,2 C 93 % 1026,2 hPa 0,0 l/m 1,4 km/h (1 Bft) O-SO 112 0,2 C 1,2 C
17.02.2013 18:31 1,1 C 93 % 1026,1 hPa 0,0 l/m 0,0 km/h (0 Bft) O 90 0,1 C 1,1 C
17.02.2013 18:36 1,1 C 93 % 1026,1 hPa 0,0 l/m 0,0 km/h (0 Bft) O-SO 112 0,1 C 1,1 C
17.02.2013 18:41 1,1 C 93 % 1026,0 hPa 0,0 l/m 0,0 km/h (0 Bft) O-SO 112 0,1 C 1,1 C
17.02.2013 18:46 1,1 C 93 % 1026,2 hPa 0,0 l/m 2,5 km/h (1 Bft) O-SO 112 0,1 C 1,1 C
17.02.2013 18:51 1,1 C 93 % 1026,4 hPa 0,0 l/m 0,0 km/h (0 Bft) O-SO 112 0,1 C 1,1 C
17.02.2013 18:56 1,1 C 93 % 1026,4 hPa 0,0 l/m 0,0 km/h (0 Bft) O-SO 112 0,1 C 1,1 C
17.02.2013 19:01 1,1 C 93 % 1026,3 hPa 0,0 l/m 2,9 km/h (1 Bft) O-SO 112 0,1 C 1,1 C
17.02.2013 19:06 1,1 C 93 % 1026,2 hPa 0,0 l/m 0,0 km/h (0 Bft) O-SO 112 0,1 C 1,1 C
17.02.2013 19:11 1,1 C 93 % 1026,2 hPa 0,0 l/m 1,4 km/h (1 Bft) SO 135 0,1 C 1,1 C
17.02.2013 19:16 1,1 C 93 % 1026,2 hPa 0,0 l/m 1,4 km/h (1 Bft) O-SO 112 0,1 C 1,1 C
17.02.2013 19:21 1,1 C 93 % 1026,2 hPa 0,0 l/m 1,4 km/h (1 Bft) O-SO 112 0,1 C 1,1 C
17.02.2013 19:26 1,1 C 93 % 1026,2 hPa 0,0 l/m 2,5 km/h (1 Bft) SO 135 0,1 C 1,1 C
17.02.2013 19:31 1,1 C 93 % 1026,2 hPa 0,0 l/m 0,0 km/h (0 Bft) SO 135 0,1 C 1,1 C
17.02.2013 19:36 1,1 C 92 % 1026,1 hPa 0,0 l/m 1,4 km/h (1 Bft) O-SO 112 -0,1 C 1,1 C
17.02.2013 19:41 1,1 C 92 % 1026,1 hPa 0,0 l/m 0,0 km/h (0 Bft) O-SO 112 -0,1 C 1,1 C
17.02.2013 19:46 1,1 C 92 % 1026,1 hPa 0,0 l/m 0,0 km/h (0 Bft) O-SO 112 -0,1 C 1,1 C
17.02.2013 19:51 1,1 C 92 % 1026,2 hPa 0,0 l/m 1,1 km/h (1 Bft) O-SO 112 -0,1 C 1,1 C
17.02.2013 19:56 1,1 C 92 % 1026,2 hPa 0,0 l/m 2,5 km/h (1 Bft) SO 135 -0,1 C 1,1 C
17.02.2013 20:01 1,0 C 92 % 1026,1 hPa 0,0 l/m 0,0 km/h (0 Bft) SO 135 -0,2 C 1,0 C
17.02.2013 20:06 1,0 C 92 % 1026,1 hPa 0,0 l/m 2,5 km/h (1 Bft) O-SO 112 -0,2 C 1,0 C
17.02.2013 20:11 1,0 C 92 % 1026,1 hPa 0,0 l/m 1,1 km/h (1 Bft) O-SO 112 -0,2 C 1,0 C
17.02.2013 20:16 1,0 C 92 % 1026,3 hPa 0,0 l/m 0,0 km/h (0 Bft) O-SO 112 -0,2 C 1,0 C
17.02.2013 20:21 0,9 C 92 % 1026,1 hPa 0,0 l/m 3,6 km/h (1 Bft) O-SO 112 -0,2 C 0,9 C
17.02.2013 20:26 0,9 C 92 % 1026,2 hPa 0,0 l/m 0,0 km/h (0 Bft) O-SO 112 -0,2 C 0,9 C
17.02.2013 20:31 0,9 C 92 % 1026,2 hPa 0,0 l/m 0,0 km/h (0 Bft) O-SO 112 -0,2 C 0,9 C
17.02.2013 20:36 0,9 C 92 % 1026,1 hPa 0,0 l/m 0,0 km/h (0 Bft) O-SO 112 -0,2 C 0,9 C
17.02.2013 20:41 0,9 C 92 % 1026,2 hPa 0,0 l/m 1,8 km/h (1 Bft) O-SO 112 -0,2 C 0,9 C
17.02.2013 20:46 0,9 C 92 % 1026,1 hPa 0,0 l/m 0,0 km/h (0 Bft) O-SO 112 -0,2 C 0,9 C
17.02.2013 20:51 0,9 C 92 % 1026,1 hPa 0,0 l/m 0,0 km/h (0 Bft) O-SO 112 -0,2 C 0,9 C
17.02.2013 20:56 0,9 C 92 % 1026,1 hPa 0,0 l/m 0,0 km/h (0 Bft) O-SO 112 -0,2 C 0,9 C
17.02.2013 21:01 0,9 C 92 % 1026,1 hPa 0,0 l/m 1,4 km/h (1 Bft) O-SO 112 -0,2 C 0,9 C
17.02.2013 21:06 0,9 C 92 % 1026,1 hPa 0,0 l/m 0,0 km/h (0 Bft) O-SO 112 -0,2 C 0,9 C
17.02.2013 21:11 0,9 C 92 % 1026,0 hPa 0,0 l/m 0,0 km/h (0 Bft) O-SO 112 -0,2 C 0,9 C
17.02.2013 21:16 0,9 C 92 % 1026,1 hPa 0,0 l/m 0,0 km/h (0 Bft) O-SO 112 -0,2 C 0,9 C
17.02.2013 21:21 0,9 C 92 % 1025,9 hPa 0,0 l/m 0,0 km/h (0 Bft) O-SO 112 -0,2 C 0,9 C
17.02.2013 21:26 0,9 C 92 % 1025,9 hPa 0,0 l/m 0,0 km/h (0 Bft) O-SO 112 -0,2 C 0,9 C
17.02.2013 21:31 0,9 C 92 % 1025,8 hPa 0,0 l/m 3,6 km/h (1 Bft) O-SO 112 -0,2 C 0,9 C
17.02.2013 21:36 0,9 C 92 % 1026,0 hPa 0,0 l/m 1,4 km/h (1 Bft) O-SO 112 -0,2 C 0,9 C
17.02.2013 21:41 0,9 C 92 % 1025,9 hPa 0,0 l/m 2,5 km/h (1 Bft) O-SO 112 -0,2 C 0,9 C
17.02.2013 21:46 0,9 C 92 % 1025,9 hPa 0,0 l/m 0,0 km/h (0 Bft) O-SO 112 -0,2 C 0,9 C
17.02.2013 21:51 0,9 C 92 % 1025,9 hPa 0,0 l/m 2,5 km/h (1 Bft) SO 135 -0,2 C 0,9 C
17.02.2013 21:56 0,9 C 92 % 1025,9 hPa 0,0 l/m 2,2 km/h (1 Bft) SO 135 -0,2 C 0,9 C
17.02.2013 22:01 0,9 C 92 % 1025,8 hPa 0,0 l/m 1,8 km/h (1 Bft) SO 135 -0,2 C 0,9 C
17.02.2013 22:06 0,9 C 92 % 1025,9 hPa 0,0 l/m 3,2 km/h (1 Bft) O-SO 112 -0,2 C 0,9 C
17.02.2013 22:11 0,9 C 92 % 1025,8 hPa 0,0 l/m 3,2 km/h (1 Bft) O 90 -0,2 C 0,9 C
17.02.2013 22:16 0,9 C 92 % 1025,7 hPa 0,0 l/m 0,0 km/h (0 Bft) O-SO 112 -0,2 C 0,9 C
17.02.2013 22:21 0,9 C 92 % 1025,7 hPa 0,0 l/m 2,5 km/h (1 Bft) O-SO 112 -0,2 C 0,9 C
17.02.2013 22:26 0,8 C 92 % 1025,7 hPa 0,0 l/m 2,5 km/h (1 Bft) O-SO 112 -0,3 C 0,8 C
17.02.2013 22:31 0,8 C 92 % 1025,6 hPa 0,0 l/m 2,2 km/h (1 Bft) SO 135 -0,3 C 0,8 C
17.02.2013 22:36 0,8 C 92 % 1025,8 hPa 0,0 l/m 1,1 km/h (1 Bft) SO 135 -0,3 C 0,8 C
17.02.2013 22:41 0,8 C 92 % 1025,8 hPa 0,0 l/m 0,0 km/h (0 Bft) O-SO 112 -0,3 C 0,8 C
17.02.2013 22:46 0,8 C 92 % 1025,6 hPa 0,0 l/m 1,8 km/h (1 Bft) O-SO 112 -0,3 C 0,8 C
17.02.2013 22:51 0,8 C 92 % 1025,7 hPa 0,0 l/m 3,2 km/h (1 Bft) O 90 -0,3 C 0,8 C
17.02.2013 22:56 0,8 C 92 % 1025,7 hPa 0,0 l/m 3,6 km/h (1 Bft) O-SO 112 -0,3 C 0,8 C
17.02.2013 23:01 0,8 C 92 % 1025,8 hPa 0,0 l/m 3,2 km/h (1 Bft) O-NO 67 -0,3 C 0,8 C
17.02.2013 23:06 0,8 C 92 % 1025,7 hPa 0,0 l/m 2,9 km/h (1 Bft) O-NO 67 -0,3 C 0,8 C
17.02.2013 23:11 0,7 C 92 % 1025,8 hPa 0,0 l/m 5,8 km/h (2 Bft) O-SO 112 -0,4 C -1,1 C
17.02.2013 23:16 0,7 C 92 % 1025,9 hPa 0,0 l/m 0,0 km/h (0 Bft) SO 135 -0,4 C 0,7 C
17.02.2013 23:21 0,7 C 92 % 1025,7 hPa 0,0 l/m 0,0 km/h (0 Bft) SO 135 -0,4 C 0,7 C
17.02.2013 23:26 0,7 C 92 % 1025,8 hPa 0,0 l/m 0,0 km/h (0 Bft) O-SO 112 -0,4 C 0,7 C
17.02.2013 23:31 0,7 C 92 % 1025,6 hPa 0,0 l/m 3,2 km/h (1 Bft) SO 135 -0,4 C 0,7 C
17.02.2013 23:36 0,7 C 92 % 1025,8 hPa 0,0 l/m 5,0 km/h (1 Bft) O 90 -0,4 C -0,8 C
17.02.2013 23:41 0,7 C 92 % 1025,5 hPa 0,0 l/m 0,0 km/h (0 Bft) SO 135 -0,4 C 0,7 C
17.02.2013 23:46 0,7 C 92 % 1025,7 hPa 0,0 l/m 2,9 km/h (1 Bft) O-SO 112 -0,4 C 0,7 C
17.02.2013 23:51 0,7 C 92 % 1025,6 hPa 0,0 l/m 4,7 km/h (1 Bft) O-SO 112 -0,4 C -0,7 C
17.02.2013 23:56 0,6 C 92 % 1025,7 hPa 0,0 l/m 1,1 km/h (1 Bft) O-SO 112 -0,5 C 0,6 C
_ Min-Zeit 02:46 00:01 23:41 - 00:01 - - 02:46 10:36
Minimum _ 0,5 C 90 % 1025,5 hPa - 0,0 km/h (0 Bft) - - -0,8 C -1,2 C
_ Max-Zeit 13:01 07:36 08:26 00:01 12:31 - - 13:01 13:01
Maximum _ 1,6 C 93 % 1027,4 hPa 0,0 l/m 6,8 km/h
SO (2 Bft)
- - 0,6 C 1,6 C
Durchschnitt _ 1,0 C 92 % 1026,6 hPa #0,0 l/m 1,5 km/h (1 Bft) O-SO - -0,2 C 0,9 C
(c) by David Heller